Location: Baggettsville
(36.4767°N, 86.7303°W)
Time: 21:44:15
(UTC+00:00)

Envisat - Pass Details

Date: 25 September 2021
Orbit: 764 x 766 km, 98.2° (Epoch: 15 October)

Event Time Altitude Azimuth Distance (km) Brightness Sun altitude
Rises 10:39:45 0° 16° (NNE) 3,236 6.6 -12.4°
Reaches altitude 10° 10:42:05 10° 20° (NNE) 2,306 5.8 -11.9°
Maximum altitude 10:47:08 63° 101° (E) 854 3.6 -10.9°
Drops below altitude 10° 10:52:07 10° 182° (S) 2,290 5.4 -9.9°
Sets 10:54:26 0° 186° (S) 3,212 6.1 -9.5°
